Location: Unspecified
(0.0000°N, 0.0000°E)
Time: 09:04:56
(UTC+02:00)

ATLAS 2AS CENTAUR R/B - Visible Passes

Search period start: 21 October 2014 00:00
Search period end: 30 October 2014 23:00
Orbit: 917 x 1296 km, 63.7° (Epoch: 19 October)

Date Brightness Start Highest point End Pass type
(mag) Time Alt. Az. Time Alt. Az. Time Alt. Az.
22 Oct 4.8 22:16:15 10° S 22:16:40 12° S 22:16:40 12° S visible
23 Oct 4.4 21:32:51 10° SSE 21:34:04 14° SSE 21:34:04 14° SSE visible
24 Oct 4.5 22:37:11 10° SSW 22:39:03 21° SW 22:39:03 21° SW visible
25 Oct 3.3 21:52:35 10° SSW 21:56:37 42° S 21:56:37 42° S visible
26 Oct 3.2 20:08:39 10° S 20:14:17 34° ESE 20:14:18 34° ESE visible
26 Oct 4.9 21:59:58 10° WSW 22:01:49 17° WSW 22:01:49 17° WSW visible
27 Oct 4.0 19:25:46 10° SSE 19:29:42 17° ESE 19:32:04 14° E visible
27 Oct 3.5 21:14:08 10° SW 21:19:35 43° W 21:19:35 43° W visible
28 Oct 2.5 20:29:09 10° SSW 20:35:30 85° WNW 20:37:28 50° NNE visible
29 Oct 2.8 19:44:49 10° S 19:50:55 51° ESE 19:55:25 20° NE visible
29 Oct 4.9 21:38:04 10° W 21:41:43 15° WNW 21:42:57 15° NW visible
30 Oct 3.6 19:01:13 10° SSE 19:06:21 26° ESE 19:11:46 10° ENE visible
30 Oct 4.2 20:51:23 10° SW 20:56:54 30° WNW 21:00:59 17° NNW visible
